Home > Time Zones > World Clock > Weather > Palau > Koror > Past weeks

Flag for Palau Weather past 2 weeks in Koror, Palau

Now
81 °F

Mostly cloudy.


Feels Like: 88 °F
Forecast: 78 / 83 °F
Wind: 7 mph from Northwest

Location: Koror / Palau Island

Current Time: Jul 25, 2014 at 4:09:49 AM

Latest Report: Jul 25, 2014 at 2:55 AM


Visibility: 14 mi

Pressure: 29.68 "Hg

Humidity: 94%

Dew point: 79 °F

Location of KororLocation

Historic Weather in Koror — Graph

°F

Koror temperature yesterday

Maximum temperature yesterday: 82 °F (at 12:55 PM)
Minimum temperature yesterday: 77 °F (at 7:50 AM)
Average temperature yesterday: 80 °F

Past Weeks' High & Low Weather Summary

 TemperatureHumidityPressure
High88 °F (Jul 10, 1:52 PM)100% (Jul 10, 7:50 PM)29.89 "Hg (Jul 10, 7:50 PM)
Low77 °F (Jul 14, 8:50 PM)75% (Jul 15, 11:50 AM)29.68 "Hg (Jul 25, 2:55 AM)
Average82 °F93%29.80 "Hg
* Reported Jul 10 2:50 AM — Jul 25 2:55 AM, Koror, Weather by CustomWeather, © 2014

Note: Actual official high and low records may vary slightly from our data, if they occured in-between our weather recording intervals... More about our weather records

Advertising

Koror weather history for previous 24 hours

 ConditionsComfort  
Time TempWeatherWind HumidityBarometerVisibility
2:55 AM
Jul 25
81 °FMostly cloudy.7 mph94%29.68 "Hg14 mi
1:55 AM81 °FSprinkles. Mostly cloudy.8 mph100%29.69 "Hg12 mi
12:54 AM81 °FMostly cloudy.7 mph100%29.71 "Hg14 mi
11:55 PM
Jul 24
81 °FMostly cloudy.7 mph100%29.72 "Hg14 mi
10:50 PM81 °FSprinkles. Mostly cloudy.6 mph100%29.74 "Hg12 mi
9:55 PM82 °FMostly cloudy.9 mph94%29.74 "Hg14 mi
8:51 PM81 °FOvercast.7 mph100%29.74 "Hg14 mi
7:52 PM81 °FMostly cloudy.12 mph100%29.73 "Hg14 mi
6:55 PM81 °FMostly cloudy.12 mph100%29.72 "Hg14 mi
5:50 PM82 °FMostly cloudy.15 mph94%29.71 "Hg14 mi
4:54 PM81 °FMostly cloudy.13 mph100%29.70 "Hg14 mi
3:50 PM82 °FMostly cloudy.14 mph94%29.69 "Hg15 mi
2:51 PM82 °FMostly cloudy.12 mph100%29.70 "Hg15 mi
1:50 PM82 °FMostly cloudy.16 mph100%29.71 "Hg15 mi
12:55 PM82 °FMostly cloudy.17 mph100%29.72 "Hg15 mi
11:53 AM81 °FMostly cloudy.17 mph94%29.75 "Hg14 mi
10:50 AM79 °FSprinkles. Mostly cloudy.14 mph100%29.77 "Hg12 mi
9:53 AM81 °FSprinkles. Mostly cloudy.15 mph100%29.77 "Hg12 mi
8:54 AM79 °FMostly cloudy.12 mph94%29.78 "Hg14 mi
7:50 AM77 °FSprinkles. Mostly cloudy.20 mph94%29.79 "Hg11 mi
6:51 AM79 °FMostly cloudy.16 mph100%29.77 "Hg13 mi
5:51 AM79 °FSprinkles. Mostly cloudy.14 mph100%29.74 "Hg12 mi
4:53 AM81 °FSprinkles. Mostly cloudy.10 mph94%29.84 "Hg12 mi
Weather by CustomWeather, © 2014

See weather overviewHow to use our weather pages